Погода в Весеннем

Россия / Республика Хакасия     53°37′07″N   90°42′43″E
темп.,
°C
ветер,
м/с
пор.,
м/с
влажн.,
%
обл.,
%
осадки,
мм/ч
давл.,
гПа
погр.,
м
27 февраля, сб
сб2701:00−23юз61480100 0.0 1039682
04:00−23ююз41082100 0.0 1040373
07:00−23ююз61180100 0.0 1041509
10:00−20юз71271100 0.0 1039915
13:00−18юз6969100 0.0 10371022
16:00−16зюз61064100 0.0 10361342
19:00−18юз51076100 0.0 1038284
22:00−19юз51078100 0.0 1039303
28 февраля, вс
вс2801:00−20юз51079100 0.0 1040264
04:00−20юз41079100 0.0 1040277
07:00−21юз3683100 0.0 1041143
10:00−18юз3975100 0.0 1040440
13:00−13юз5868100 0.0 1037801
16:00−12ююз467482 0.0 1035517
19:00−16ююз228163 0.0 103420
22:00−17вюв0187100 0.0 103420
1 марта, пн
пн101:00−16св0193100 0.0 103123
04:00−17ююв1195100 0.0 102920
07:00−17ююв1296100 0.0 102521
10:00−15юв1290100 0.0 1022122
13:00−12ююв3391100 0.3 1018252
16:00−9ююв3492100 0.1 1016245
19:00−11ююв129798 0.2 101421
22:00−9юв1193100 0.0 101321
2 марта, вт
вт201:00−5зюз31284100 0.0 1011412
04:00−3юз61582100 0.0 1010501
07:00−4зюз8177792 0.0 1012610
10:00−4ююз5128196 0.0 1013776
13:00−1зюз8146798 0.0 10141694
16:00−2зюз71370100 0.1 10141578
19:00−6юз4678100 0.1 101590
22:00−8юз4581100 0.0 101686
3 марта, ср
ср301:00−8з2282100 0.0 101521
04:00−9с1286100 0.0 101324
07:00−10ссз2288100 0.0 101325
10:00−8ссв1183100 0.0 1012132
13:00−7всв2185100 0.0 1012289
16:00−7всв2291100 0.1 1012227
19:00−10ююв2296100 0.3 101530
22:00−9зюз5117879 0.0 1018302